Simultaneous Nadir Overpasses (SNOs) Predictions

Prediction of SNOs between LANDSAT-8 and NOAA-19 Satellite Orbit:

Table of predicted SNOs for the next 14.0 days since TLE Epoch: 12/1/2018
Index Date (LANDSAT-8) Time (LANDSAT-8) Lat,Lon (LANDSAT-8) SZA (LANDSAT-8 ) Date (NOAA-19) Time (NOAA-19) Lat,Lon (NOAA-19) SZA (NOAA-19 ) Distance(km) Time Diff (sec)
1 12/01/2018 19:29:38 -78.21, 84.09 79.37 12/01/2018 19:29:06 -78.22, 84.13 79.35 2.05 32
2 12/01/2018 20:19:05 78.16,-108.49 100.59 12/01/2018 20:20:10 78.19,-108.42 100.64 3.51 65
3 12/04/2018 01:03:20 78.25,-179.13 101.00 12/04/2018 01:02:41 78.22,-179.16 100.96 3.44 39
4 12/04/2018 01:52:48 -78.21, -11.67 79.04 12/04/2018 01:53:36 -78.19, -11.73 79.06 2.79 48
5 12/06/2018 06:37:04 -78.26, -82.52 78.72 12/06/2018 06:36:07 -78.24, -82.54 78.76 2.51 57
6 12/06/2018 07:26:31 78.21, 84.87 101.22 12/06/2018 07:27:12 78.22, 84.82 101.24 1.46 41
7 12/08/2018 12:10:47 78.25, 13.99 101.50 12/08/2018 12:09:43 78.25, 14.05 101.49 1.45 64
8 12/08/2018 13:00:15 -78.22,-178.52 78.54 12/08/2018 13:00:37 -78.21,-178.41 78.53 2.61 22
9 12/10/2018 17:44:23 -78.59, 112.32 77.87 12/10/2018 17:43:19 -78.65, 108.18 78.07 91.22 64
10 12/10/2018 18:33:57 78.24, -81.83 101.69 12/10/2018 18:34:13 78.22, -81.78 101.68 2.91 16
11 12/13/2018 00:07:41 -78.25, 14.77 78.15 12/13/2018 00:07:39 -78.26, 14.65 78.14 3.22 2




NCC Satellite Simultaneous Nadir Overpasses (SNOs) Prediction Service
